Regional Weather Roundup
Issued by NWS

Home | Current Version | Previous Version | Graphics & Text | Print | Product List | Glossary Off
Versions: 1 2 3 4 5 6 7 8 9 10 11 12 13 14 15 16 17 18 19 20 21 22 23 24 25 26 27 28 29 30 31 32 33 34 35 36 37 38 39 40 41 42 43 44 45 46 47 48 49 50

000
ASUS43 KDTX 281110
RWRMI
MICHIGAN HOURLY REGIONAL WEATHER ROUNDUP
NATIONAL WEATHER SERVICE DETROIT/PONTIAC MI
700 AM EDT THU JUL 28 2016

NOTE: "FAIR" INDICATES FEW OR NO CLOUDS BELOW 12,000 FEET WITH NO
SIGNIFICANT WEATHER AND/OR OBSTRUCTION TO VISIBILITY.

MIZ047>049-052>055-059>063-066>070-074>076-081>083-281200-
SOUTHEAST LOWER MICHIGAN

CITY           SKY/WX    TMP DP  RH WIND       PRES   REMARKS
ADRIAN         MOCLDY    66  64  93 CALM      29.94R
ALMA           CLOUDY    63  63 100 CALM      29.95R FOG
ANN ARBOR      MOCLDY    64  64 100 N5        29.93R
BAD AXE        PTCLDY    61  61 100 CALM      29.97R
CARO           CLEAR     61  60  97 CALM      29.95R FOG
DETROIT CITY   PTCLDY    69  64  84 CALM      29.93R
DETROIT        CLOUDY    71  64  78 NE3       29.93R
FLINT          CLEAR     69  63  81 N3        29.95R
GROSSE ILE     MOCLDY    72  67  83 NE6       29.91S
HILLSDALE      CLOUDY    64  62  94 CALM      29.94R
HOWELL         CLOUDY    64  62  96 N5        29.95R

CITY           SKY/WX    TMP DP  RH WIND       PRES   REMARKS
JACKSON        PTCLDY    62  62 100 CALM      29.94R
LAMBERTVILLE   CLOUDY    68  65  90 CALM      29.93R
LANSING        CLEAR     63  60  90 NE3       29.95R
LAPEER         FAIR      60  59  97 CALM      29.95S
MASON          MOCLDY    61  60  95 NW3       29.95R
MONROE         MOCLDY    66  65  97 CALM      29.92R
MT. CLEMENS    CLOUDY    67  64  90 N3        29.91R
PONTIAC        MOCLDY    66  63  90 E3        29.93R
PORT HOPE        N/A     72  65  78 N8        29.95
PORT HURON     PTCLDY    63  63 100 CALM      29.94R
TRI CITIES     FOG       65  65 100 N5        29.95S VSB<1/4
MIDLAND        FOG       65  65 100 CALM      29.95R VSB<1/4
TROY           MOCLDY    70  64  79 CALM      29.95R
SAGINAW HB     FOG       63  61  94 CALM      29.94R VSB<1/4
$$
MIZ043>046-050>051-056>058-064>065-071>073-077>080-281200-
SOUTHWEST LOWER MICHIGAN

CITY           SKY/WX    TMP DP  RH WIND       PRES   REMARKS
BATTLE CREEK   CLEAR     64  64 100 N3        29.94R
BENTON HARBOR  CLEAR     66  63  90 CALM      29.91R FOG
BIG RAPIDS     CLOUDY    66  66 100 CALM      29.96R
COLDWATER      MOCLDY    64  64 100 CALM      29.93R
FREMONT        LGT RAIN  70  70 100 NE6       29.94R
HOLLAND        CLOUDY    66  64  93 CALM      29.93R
GRAND RAPIDS   CLOUDY    66  63  90 CALM      29.95R
IONIA          FOG       63  62  96 CALM      29.94R VSB 3/4
KALAMAZOO      CLEAR     67  63  87 CALM      29.94R
LUDINGTON      CLOUDY    67  63  86 E7        29.94R
MARSHALL       CLOUDY    63  63  98 CALM      29.94R
MOUNT PLEASANT CLOUDY    66  66  99 N3        29.96R FOG
MUSKEGON       MOCLDY    68  65  90 CALM      29.93R
SOUTH HAVEN    PTCLDY    65  64  99 CALM      29.93R
$$
MIZ016>042-281200-
NORTHERN LOWER MICHIGAN

CITY           SKY/WX    TMP DP  RH WIND       PRES   REMARKS
ALPENA         LGT RAIN  62  58  86 NW3       29.99R
BEAVER ISLAND  LGT RAIN  59  58  97 CALM      30.00S
BELLAIRE       CLOUDY    64  54  70 NE6       30.00R
CADILLAC       CLOUDY    64  56  76 NE5       29.98S
CHARLEVOIX     LGT RAIN  63  57  82 E3        30.03R
FRANKFORT      CLOUDY    67  54  63 E7        29.98R
GAYLORD        CLOUDY    61  50  67 NE6       30.01R
GRAYLING       CLOUDY    65  52  62 N5        30.01R
HARBOR SPRINGS LGT RAIN  60  56  86 E5        30.00R
HOUGHTON LAKE  CLOUDY    63  57  81 E8        30.00R
MANISTEE       CLOUDY    68  59  73 E10       29.95R
OSCODA         CLOUDY    65  59  82 N9        29.97R
PELLSTON       LGT RAIN  60  57  89 W3        30.01R
ROGERS CITY    LGT RAIN  64  58  82 NW5       30.00S
TRAVERSE CITY  CLOUDY    68  57  68 NE10      29.98R
$$
MIZ007>008-015-281200-
EASTERN UPPER MICHIGAN

CITY           SKY/WX    TMP DP  RH WIND       PRES   REMARKS
KINROSS        CLOUDY    60  58  92 N5        30.00
MACKINAC ISLAN LGT RAIN  59  59 100 N5        30.00S
NEWBERRY       CLOUDY    59  57  94 NW3       30.01R
S. S. MARIE    CLOUDY    64  57  78 CALM      30.00S
MUNISING         N/A     64  59  83 N8        30.01S
$$
MIZ004>006-011>014-085-281200-
CENTRAL UPPER MICHIGAN

CITY           SKY/WX    TMP DP  RH WIND       PRES   REMARKS
MANISTIQUE     CLOUDY    59  57  94 CALM      30.00F
ESCANABA       CLOUDY    59  55  88 N3        30.00R
MENOMINEE      LGT RAIN N/A N/A N/A NE8       30.01S
SAWYER-GWINN   PTCLDY    57  54  88 N5        30.04R
$$
MIZ001>003-009>011-084-281200-
WESTERN UPPER MICHIGAN

CITY           SKY/WX    TMP DP  RH WIND       PRES   REMARKS
IRON MOUNTAIN  CLOUDY    59  55  87 NW3       30.02S
HOUGHTON       CLEAR     59  51  75 NE9       30.05R
COPPER HARBOR    N/A     58  54  86 CALM      30.06R
IRONWOOD       MOCLDY    59  57  94 NE5       30.05R
$$

ABBREVIATIONS USED IN REMARKS
   TC - TEMPERATURE IN CELSIUS
  WCI - WIND CHILL INDEX
   HX - HEAT INDEX
  VSB - VISIBILITY




USA.gov is the U.S. government's official web portal to all federal, state and local government web resources and services.